Flag for Canada Weather past 2 weeks in Peterborough, Ontario, Canada

Now
36 °F

Mostly cloudy.


Feels Like: 29 °F
Forecast: 30 / 39 °F
Wind: 8 mph from Southwest

Location: Peterborough Airport

Current Time: Mar 29, 2015 at 10:56:40 PM

Latest Report: Mar 29, 2015 at 10:00 PM


Visibility: 9 mi

Pressure: 29.87 "Hg

Humidity: 60%

Dew point: 23 °F

Location of PeterboroughLocation

Historic Weather in Peterborough — Graph

°F

Peterborough temperature yesterday

Maximum temperature yesterday: 30 °F (at 3:00 PM)
Minimum temperature yesterday: 10 °F (at 7:00 AM)
Average temperature yesterday: 20 °F

Past Weeks' High & Low Weather Summary

 TemperatureHumidityPressure
High45 °F (Mar 16, 4:00 PM)100% (Mar 16, 12:00 AM)30.43 "Hg (Mar 16, 12:00 AM)
Low3 °F (Mar 23, 7:00 AM)21% (Mar 19, 4:00 PM)29.64 "Hg (Mar 17, 3:47 AM)
Average28 °F72%30.06 "Hg
* Reported Mar 14 9:03 PM — Mar 29 9:00 PM, Peterborough, Weather by CustomWeather, © 2015

Note: Actual official high and low records may vary slightly from our data, if they occured in-between our weather recording intervals... More about our weather records

Advertising

Peterborough weather history for previous 24 hours

 ConditionsComfort  
Time TempWeatherWind HumidityBarometerVisibility
9:00 PM
Sun, Mar 29
34 °FMostly cloudy.8 mph65%29.88 "Hg9 mi
8:00 PM34 °FOvercast.9 mph60%29.90 "Hg9 mi
7:00 PM36 °FBroken clouds.13 mph48%29.93 "Hg9 mi
6:00 PM36 °FSunny.15 mph41%29.98 "Hg9 mi
5:00 PM37 °FSunny.21 mph38%30.02 "Hg9 mi
4:00 PM37 °FSunny.12 mph38%30.06 "Hg9 mi
3:00 PM37 °FSunny.21 mph41%30.11 "Hg9 mi
2:00 PM37 °FSunny.17 mph52%30.14 "Hg9 mi
1:00 PM37 °FScattered clouds.15 mph52%30.17 "Hg9 mi
12:00 PM36 °FMostly cloudy.12 mph41%30.22 "Hg9 mi
11:00 AM34 °FPartly sunny.9 mph51%30.24 "Hg9 mi
10:00 AM30 °FSunny.12 mph47%30.25 "Hg9 mi
9:00 AM23 °FSunny.5 mph68%30.27 "Hg9 mi
8:00 AM18 °FSunny.2 mph86%30.27 "Hg9 mi
7:00 AM12 °FClear.2 mph92%30.27 "Hg9 mi
6:00 AM14 °FClear.5 mph92%30.25 "Hg9 mi
5:00 AM14 °FClear.3 mph100%30.25 "Hg9 mi
4:00 AM14 °FClear.2 mph92%30.25 "Hg9 mi
3:00 AM18 °FClear.5 mph79%30.25 "Hg9 mi
2:00 AM19 °FClear.6 mph73%30.26 "Hg9 mi
1:00 AM19 °FClear.8 mph79%30.25 "Hg9 mi
12:00 AM21 °FClear.7 mph68%30.25 "Hg9 mi
11:00 PM
Sat, Mar 28
21 °FClear.10 mph68%30.24 "Hg9 mi
10:00 PM21 °FClear.13 mph63%30.22 "Hg9 mi
Weather by CustomWeather, © 2015

See weather overviewHow to use our weather pages